Regional Weather Roundup
Issued by NWS Mt. Holly, NJ

Home | Current Version | Previous Version | Text Only | Print | Product List | Glossary On
Versions: 1 2 3 4 5 6 7 8 9 10 11 12 13 14 15 16 17 18 19 20 21 22 23 24 25 26 27 28 29 30 31 32 33 34 35 36 37 38 39 40 41 42 43 44 45 46 47 48 49 50
000
ASUS41 KPHI 282212
RWRPHI

REGIONAL WEATHER ROUNDUP
NATIONAL WEATHER SERVICE MOUNT HOLLY NJ
600 PM EDT FRI AUG 28 2015

NOTE:  "FAIR" INDICATES FEW OR NO CLOUDS BELOW 12,000 FEET WITH NO
SIGNIFICANT WEATHER AND/OR OBSTRUCTIONS TO VISIBILITY.

 * = STATION DOES NOT REPORT PRECIPITATION (E.G. RAIN, SNOW, ETC.)
        OR FOG.

NJZ015>026-282300-
SOUTHERN NEW JERSEY

CITY           SKY/WX    TMP DP  RH WIND       PRES   REMARKS
POMONA         SUNNY     77  57  50 S10       30.14S
MILLVILLE      CLOUDY    81  56  42 W7        30.14S
WRIGHTSTOWN    SUNNY     79  56  45 NW2       30.11F
MOUNT HOLLY    SUNNY     80  54  40 NW7       30.13S
TRENTON        SUNNY     79  54  41 VRB3      30.14S

$$
NJZ001>014-282300-
NORTHERN NEW JERSEY

CITY           SKY/WX    TMP DP  RH WIND       PRES   REMARKS
SUSSEX         MOSUNNY   75  52  44 W6        30.16R
ANDOVER*         N/A     76  55  48 CALM      30.16
MORRISTOWN     MOSUNNY   79  55  44 N5        30.14S
NEWARK         MOSUNNY   81  51  35 W7        30.13S
TETERBORO      SUNNY     80  49  33 NW7       30.11F
CALDWELL       SUNNY     79  52  38 NW6       30.14S
SOMERVILLE     SUNNY     79  53  40 CALM      30.12F
ALLAIRE*       PTSUNNY   75  57  53 S6        30.15S
TOMS RIVER*    SUNNY     79  54  41 NW6       30.15R

$$
PAZ043-044-047-054-055-060>062-066>071-282300-
EASTERN PENNSYLVANIA

CITY           SKY/WX    TMP DP  RH WIND       PRES   REMARKS
PHILADELPHIA   MOSUNNY   83  52  34 NW8       30.14S
NORTH PHILA    MOSUNNY   81  51  35 NW5       30.15S
BLUE BELL      SUNNY     79  57  47 CALM      30.14S
DOYLESTOWN     SUNNY     77  53  43 W3        30.14F
QUAKERTOWN*    PTSUNNY   77  55  47 CALM      30.16S
POTTSTOWN      MOSUNNY   76  57  51 CALM      30.17R
LANCASTER      SUNNY     79  53  40 VRB3      30.15S
COATESVILLE    PTSUNNY   77  55  47 NW6       30.17S
READING        SUNNY     79  54  41 W7        30.14S
ALLENTOWN      SUNNY     77  54  44 W6        30.15S
MOUNT POCONO   MOSUNNY   70  51  51 W5        30.20S
HAZLETON       MOSUNNY   72  52  49 CALM      30.22S
WILKES BARRE   MOSUNNY   76  52  43 NW5       30.17S

$$
DEZALL-MDZ008-012-015-019-020-282300-
DELAWARE AND EASTERN MARYLAND

CITY           SKY/WX    TMP DP  RH WIND       PRES   REMARKS
WILMINGTON     SUNNY     81  54  39 W8        30.15R
DOVER          PTSUNNY   77  64  64 E5        30.14R
GEORGETOWN     MOSUNNY   78  54  43 CALM      30.16S
ABERDEEN       MOSUNNY   79  59  50 S5        30.13S
PATUXENT       MOSUNNY   79  57  46 CALM      30.15S
OCEAN CITY     SUNNY     77  55  46 E7        30.16S
WALLOPS ISLAND SUNNY     77  58  51 SE9       30.17S
CAMBRIDGE      SUNNY     79  50  36 CALM      30.15S
SALISBURY      SUNNY     77  57  50 SE9       30.16R

$$
PAZ001-021-NYZ056-072-MDZ011-DCZ001-282300-
OTHER NEARBY LOCATIONS

CITY           SKY/WX    TMP DP  RH WIND       PRES   REMARKS
HARRISBURG     MOSUNNY   80  55  42 CALM      30.14S
STATE COLLEGE  MOSUNNY   75  55  50 CALM      30.17F
WILLIAMSPORT   PTSUNNY   76  54  46 S3        30.14S
BINGHAMTON     CLOUDY    68  51  54 CALM      30.19F
NEW YORK CITY  MOSUNNY   80  50  34 VRB6      30.15F
BALTIMORE      MOSUNNY   77  58  51 SE6       30.14S
WASHINGTON DC  MOSUNNY   82  58  43 SE3       30.14S

$$



USA.gov is the U.S. government's official web portal to all federal, state and local government web resources and services.